TimeEST,TemperatureF,Dew PointF,Humidity,Sea Level PressureIn,VisibilityMPH,Wind Direction,Wind SpeedMPH,Gust SpeedMPH,PrecipitationIn,Events,Conditions,WindDirDegrees,DateUTC
12:18 AM,44.6,39.2,81,30.17,10.0,Calm,Calm,-,N/A,,Scattered Clouds,0,2013-11-12 05:18:00
12:53 AM,43.0,39.0,86,30.17,10.0,Calm,Calm,-,N/A,,Clear,0,2013-11-12 05:53:00
1:53 AM,43.0,39.0,86,30.15,10.0,Calm,Calm,-,N/A,,Clear,0,2013-11-12 06:53:00
2:53 AM,41.0,37.0,86,30.14,10.0,Calm,Calm,-,N/A,,Clear,0,2013-11-12 07:53:00
3:53 AM,41.0,37.0,86,30.13,9.0,Calm,Calm,-,N/A,,Clear,0,2013-11-12 08:53:00
4:53 AM,39.9,36.0,86,30.12,8.0,Calm,Calm,-,N/A,,Clear,0,2013-11-12 09:53:00
5:53 AM,39.0,36.0,89,30.13,8.0,Calm,Calm,-,N/A,,Clear,0,2013-11-12 10:53:00
6:53 AM,37.0,35.1,93,30.13,6.0,Calm,Calm,-,N/A,,Clear,0,2013-11-12 11:53:00
7:53 AM,41.0,37.9,89,30.14,6.0,Calm,Calm,-,N/A,,Clear,0,2013-11-12 12:53:00
8:53 AM,50.0,42.1,74,30.14,10.0,SSW,3.5,-,N/A,,Clear,210,2013-11-12 13:53:00
9:53 AM,61.0,42.1,50,30.12,10.0,Variable,5.8,-,N/A,,Clear,0,2013-11-12 14:53:00
10:53 AM,64.9,39.9,40,30.10,10.0,WNW,8.1,-,N/A,,Clear,290,2013-11-12 15:53:00
11:53 AM,68.0,39.0,35,30.08,10.0,NNW,9.2,-,0.00,,Clear,330,2013-11-12 16:53:00
12:53 PM,71.1,35.1,27,30.05,10.0,WNW,10.4,19.6,N/A,,Clear,300,2013-11-12 17:53:00
1:53 PM,73.0,34.0,24,30.03,10.0,WNW,9.2,-,N/A,,Clear,300,2013-11-12 18:53:00
2:53 PM,73.0,34.0,24,30.02,10.0,NW,4.6,-,N/A,,Clear,310,2013-11-12 19:53:00
3:53 PM,72.0,35.1,26,30.02,10.0,NNE,11.5,-,N/A,,Clear,20,2013-11-12 20:53:00
4:53 PM,70.0,32.0,25,30.04,10.0,North,6.9,-,N/A,,Mostly Cloudy,10,2013-11-12 21:53:00
5:53 PM,66.0,32.0,28,30.06,10.0,NE,5.8,-,N/A,,Overcast,40,2013-11-12 22:53:00
6:53 PM,61.0,33.1,35,30.13,10.0,NNE,24.2,34.5,N/A,,Overcast,30,2013-11-12 23:53:00
7:53 PM,54.0,28.9,38,30.21,10.0,North,25.3,33.4,N/A,,Overcast,10,2013-11-13 00:53:00
8:53 PM,46.9,32.0,56,30.29,10.0,NNE,26.5,40.3,N/A,,Overcast,20,2013-11-13 01:53:00
9:39 PM,42.8,33.8,70,30.35,10.0,NNE,25.3,36.8,0.00,Rain,Light Rain,20,2013-11-13 02:39:00
9:53 PM,42.1,33.1,70,30.37,10.0,NNE,18.4,32.2,0.00,Rain,Light Rain,30,2013-11-13 02:53:00
10:46 PM,37.4,33.8,87,30.41,10.0,NE,13.8,24.2,0.01,Rain,Light Rain,40,2013-11-13 03:46:00
10:53 PM,37.9,33.1,83,30.40,10.0,NNE,16.1,26.5,0.01,Rain,Light Rain,30,2013-11-13 03:53:00
11:53 PM,37.0,32.0,82,30.40,10.0,NE,13.8,-,0.00,,Overcast,40,2013-11-13 04:53:00